TimeCST,TemperatureF,Dew PointF,Humidity,Sea Level PressureIn,VisibilityMPH,Wind Direction,Wind SpeedMPH,Gust SpeedMPH,PrecipitationIn,Events,Conditions,WindDirDegrees,DateUTC
12:15 AM,31.8,30.6,95,29.68,1.5,North,21.9,25.3,N/A,Snow,Light Snow,360,2013-01-30 06:15:00
12:35 AM,31.8,30.7,96,29.69,1.8,North,15.0,20.7,N/A,Snow,Light Snow,350,2013-01-30 06:35:00
12:55 AM,31.3,29.8,94,29.69,1.2,North,17.3,27.6,N/A,Snow,Light Snow,350,2013-01-30 06:55:00
1:15 AM,31.1,29.8,95,29.69,1.0,North,16.1,25.3,N/A,Snow,Snow,350,2013-01-30 07:15:00
1:35 AM,30.9,29.3,94,29.70,-9999.0,North,17.3,25.3,N/A,,Overcast,350,2013-01-30 07:35:00
1:55 AM,30.4,28.8,94,29.71,-9999.0,North,17.3,25.3,N/A,,Unknown,350,2013-01-30 07:55:00
2:15 AM,30.2,28.0,92,29.72,-9999.0,North,16.1,26.5,N/A,,Unknown,350,2013-01-30 08:15:00
2:35 AM,29.3,26.6,90,29.73,-9999.0,North,17.3,26.5,N/A,,Unknown,350,2013-01-30 08:35:00
2:55 AM,28.0,25.3,90,29.75,-9999.0,North,19.6,26.5,N/A,,Overcast,350,2013-01-30 08:55:00
3:15 AM,27.5,25.7,93,29.76,-9999.0,North,20.7,26.5,N/A,,Unknown,350,2013-01-30 09:15:00
3:35 AM,26.2,24.1,92,29.78,-9999.0,NNW,15.0,24.2,N/A,,Unknown,340,2013-01-30 09:35:00
3:55 AM,24.6,22.1,90,29.78,-9999.0,North,16.1,35.7,N/A,,Overcast,350,2013-01-30 09:55:00
4:15 AM,23.9,21.6,91,29.78,-9999.0,NNW,18.4,26.5,N/A,,Overcast,340,2013-01-30 10:15:00
4:35 AM,23.9,21.7,91,29.79,-9999.0,NNW,19.6,25.3,N/A,,Overcast,340,2013-01-30 10:35:00
4:55 AM,23.0,20.5,90,29.80,-9999.0,NNW,21.9,28.8,N/A,,Overcast,340,2013-01-30 10:55:00
5:15 AM,23.0,20.3,89,29.80,-9999.0,NNW,19.6,29.9,N/A,,Unknown,340,2013-01-30 11:15:00
5:55 AM,23.0,19.0,85,29.82,-9999.0,NNW,20.7,26.5,N/A,,Overcast,340,2013-01-30 11:55:00
6:15 AM,23.0,17.6,80,29.83,-9999.0,NNW,17.3,28.8,N/A,,Overcast,340,2013-01-30 12:15:00
6:35 AM,22.5,17.4,81,29.84,-9999.0,NNW,20.7,28.8,N/A,,Overcast,330,2013-01-30 12:35:00
6:55 AM,22.1,16.7,80,29.85,-9999.0,NNW,17.3,26.5,N/A,,Overcast,330,2013-01-30 12:55:00
7:15 AM,22.1,16.5,79,29.86,-9999.0,NNW,18.4,26.5,N/A,,Overcast,340,2013-01-30 13:15:00
7:35 AM,22.1,16.5,79,29.87,-9999.0,NNW,16.1,24.2,N/A,,Overcast,330,2013-01-30 13:35:00
7:55 AM,22.1,16.3,79,29.87,-9999.0,NNW,17.3,21.9,N/A,,Overcast,340,2013-01-30 13:55:00
8:15 AM,22.1,15.8,77,29.87,-9999.0,NNW,17.3,25.3,N/A,,Overcast,340,2013-01-30 14:15:00
8:35 AM,22.6,15.8,75,29.88,-9999.0,NNW,13.8,18.4,N/A,,Overcast,340,2013-01-30 14:35:00
8:55 AM,22.8,15.6,74,29.89,7.0,NNW,18.4,24.2,N/A,Snow,Light Snow,340,2013-01-30 14:55:00
9:15 AM,22.6,15.4,74,29.89,10.0,NNW,12.7,-,N/A,,Mostly Cloudy,340,2013-01-30 15:15:00
9:35 AM,23.5,15.8,72,29.90,10.0,NNW,12.7,19.6,N/A,,Overcast,330,2013-01-30 15:35:00
9:55 AM,23.9,15.8,71,29.90,10.0,NNW,12.7,21.9,N/A,Snow,Light Snow,330,2013-01-30 15:55:00
10:15 AM,23.9,16.7,74,29.90,5.0,NNW,17.3,21.9,N/A,Snow,Light Snow,340,2013-01-30 16:15:00
10:35 AM,23.9,16.2,72,29.90,5.0,NNW,19.6,24.2,N/A,Snow,Light Snow,340,2013-01-30 16:35:00
10:55 AM,24.6,14.9,67,29.91,10.0,NNW,13.8,17.3,N/A,,Mostly Cloudy,330,2013-01-30 16:55:00
11:15 AM,24.6,15.6,69,29.91,7.0,NNW,16.1,23.0,N/A,Snow,Light Snow,330,2013-01-30 17:15:00
11:35 AM,24.6,14.4,65,29.92,10.0,NNW,15.0,-,N/A,,Mostly Cloudy,330,2013-01-30 17:35:00
11:55 AM,25.2,15.6,67,29.91,7.0,NNW,18.4,23.0,N/A,Snow,Light Snow,340,2013-01-30 17:55:00
12:15 PM,24.6,13.8,64,29.91,7.0,NNW,16.1,21.9,N/A,,Scattered Clouds,330,2013-01-30 18:15:00
12:35 PM,24.8,14.0,64,29.90,10.0,NNW,12.7,-,N/A,Snow,Light Snow,340,2013-01-30 18:35:00
12:55 PM,25.2,12.9,60,29.90,7.0,NNW,13.8,20.7,N/A,,Scattered Clouds,330,2013-01-30 18:55:00
1:15 PM,26.2,14.2,60,29.90,10.0,NW,11.5,-,N/A,,Mostly Cloudy,320,2013-01-30 19:15:00
1:35 PM,26.2,12.9,57,29.89,10.0,NNW,13.8,17.3,N/A,,Overcast,330,2013-01-30 19:35:00
1:55 PM,25.7,13.1,59,29.88,10.0,NNW,12.7,17.3,N/A,,Overcast,330,2013-01-30 19:55:00
2:15 PM,25.9,13.5,59,29.89,10.0,NW,10.4,17.3,N/A,,Overcast,320,2013-01-30 20:15:00
2:35 PM,26.4,13.8,59,29.88,10.0,NW,11.5,-,N/A,,Overcast,310,2013-01-30 20:35:00
2:55 PM,26.1,14.2,61,29.89,10.0,NW,13.8,19.6,N/A,,Overcast,310,2013-01-30 20:55:00
3:15 PM,26.1,14.4,61,29.89,10.0,WNW,15.0,20.7,N/A,,Overcast,300,2013-01-30 21:15:00
3:35 PM,25.9,14.5,62,29.89,10.0,WNW,11.5,-,N/A,,Overcast,300,2013-01-30 21:35:00
3:55 PM,25.7,14.7,63,29.90,10.0,WNW,9.2,-,N/A,,Overcast,290,2013-01-30 21:55:00
4:15 PM,25.7,14.9,64,29.90,10.0,WNW,9.2,-,N/A,,Overcast,300,2013-01-30 22:15:00
4:35 PM,25.5,15.4,66,29.90,10.0,NW,8.1,-,N/A,,Overcast,310,2013-01-30 22:35:00
4:55 PM,25.3,15.6,67,29.90,10.0,NW,6.9,-,N/A,,Overcast,310,2013-01-30 22:55:00
5:15 PM,25.5,15.4,66,29.90,10.0,WNW,6.9,-,N/A,,Overcast,300,2013-01-30 23:15:00
5:35 PM,23.2,14.2,68,29.90,10.0,WNW,3.5,-,N/A,,Scattered Clouds,300,2013-01-30 23:35:00
5:55 PM,20.8,13.3,73,29.90,10.0,Calm,Calm,-,N/A,,Clear,0,2013-01-30 23:55:00
6:15 PM,19.9,13.5,76,29.90,10.0,WSW,4.6,-,N/A,,Clear,240,2013-01-31 00:15:00
6:35 PM,16.0,10.0,77,29.90,10.0,Calm,Calm,-,N/A,,Clear,0,2013-01-31 00:35:00
6:55 PM,15.6,11.5,84,29.90,10.0,Calm,Calm,-,N/A,,Clear,0,2013-01-31 00:55:00
7:15 PM,13.8,9.3,82,29.90,10.0,Calm,Calm,-,N/A,,Clear,0,2013-01-31 01:15:00
7:35 PM,14.0,10.4,86,29.90,10.0,Calm,Calm,-,N/A,,Clear,0,2013-01-31 01:35:00
7:55 PM,12.9,9.1,85,29.90,10.0,Calm,Calm,-,N/A,,Clear,0,2013-01-31 01:55:00
8:15 PM,12.6,9.1,86,29.90,10.0,SW,3.5,-,N/A,,Scattered Clouds,230,2013-01-31 02:15:00
8:35 PM,12.6,8.8,85,29.90,10.0,Calm,Calm,-,N/A,,Mostly Cloudy,0,2013-01-31 02:35:00
8:55 PM,11.7,7.9,85,29.90,10.0,Calm,Calm,-,N/A,,Mostly Cloudy,0,2013-01-31 02:55:00
9:15 PM,12.6,8.4,83,29.90,10.0,WSW,3.5,-,N/A,,Mostly Cloudy,250,2013-01-31 03:15:00
9:35 PM,15.3,11.1,84,29.90,10.0,WSW,4.6,-,N/A,,Scattered Clouds,240,2013-01-31 03:35:00
9:55 PM,17.4,11.3,77,29.90,10.0,WSW,6.9,-,N/A,,Clear,240,2013-01-31 03:55:00
10:15 PM,17.4,11.3,77,29.90,10.0,WSW,5.8,-,N/A,,Clear,240,2013-01-31 04:15:00
10:35 PM,19.0,12.9,77,29.90,10.0,West,3.5,-,N/A,,Mostly Cloudy,260,2013-01-31 04:35:00
10:55 PM,16.2,11.3,81,29.90,10.0,Calm,Calm,-,N/A,,Mostly Cloudy,0,2013-01-31 04:55:00
11:15 PM,16.3,11.7,82,29.91,10.0,Calm,Calm,-,N/A,,Overcast,0,2013-01-31 05:15:00
11:35 PM,16.3,11.8,82,29.90,10.0,Calm,Calm,-,N/A,,Mostly Cloudy,0,2013-01-31 05:35:00
11:55 PM,15.4,11.8,86,29.91,10.0,Calm,Calm,-,N/A,,Scattered Clouds,0,2013-01-31 05:55:00